User: anonymous   Login
Location: Table Mountain
(47.2500°N, 120.5778°W)
Time: 09:57:56
(UTC-08:00)
Language:

Tiangong 2 - Orbit

View from above orbital plane
View from above orbital plane
View from above satellite
View from above satellite

Ground track
Ground track

The orbit data is extracted from the following two-line orbital elements,

1 41765U 16057A   18055.87183763  .00003538  00000-0  46344-4 0  9998
2 41765  42.7852 292.3889 0003624 218.5978 194.9862 15.60454750 82432
Epoch (UTC): 24 February 2018 20:55:26
Eccentricity: 0.0003624
inclination: 42.7852°
perigee height: 384 km
apogee height: 389 km
right ascension of ascending node: 292.3889°
argument of perigee: 218.5978°
revolutions per day: 15.60454750
mean anomaly at epoch: 194.9862°
orbit number at epoch: 8243

The dashed part of the orbit path shows where the satellite is in the earth's shadow,  

DLR